Location: Arrodets-la-Barthe
(43.0306°N, 0.2829°E)
Time: 00:03:57
(UTC+00:00)

Iridium 4 Rocket - Pass Details

Date: 01 June 2022
Orbit: 585 x 902 km, 86.9° (Epoch: 03 July)

Event Time Altitude Azimuth Distance (km) Brightness Sun altitude
Rises 21:05:46 0° 14° (NNE) 3,085 7.2 -13.9°
Reaches altitude 10° 21:08:37 10° 32° (NNE) 2,223 6.1 -14.2°
Maximum altitude 21:12:08 19° 78° (ENE) 1,750 5.1 -14.6°
Enters shadow 21:14:03 16° 105° (ESE) 1,949 5.1 -14.8°
